QPF
0.20 0.20 0.18 0.12 0.11 0.10 0.08 0.09 0.09 0.08 0.08 0.08 0.10 0.10 0.07 0.05 0.05 0.07 0.11 0.14 0.13 0.11 0.10 0.13 0.18 0.22 0.17 0.14 0.13 0.12 0.13 0.13 0.10 0.08 0.07 0.06 0.05 0.06 0.07 0.07 0.10 0.09 0.06
0.12 0.12 0.13 0.09 0.11 0.11 0.09 0.08 0.07 0.06 0.07 0.08 0.11 0.10 0.07 0.06 0.07 0.09 0.12 0.15 0.16 0.14 0.15 0.19 0.25 0.22 0.14 0.12 0.12 0.12 0.14 0.15 0.14 0.10 0.08 0.07 0.05 0.07 0.07 0.07 0.10 0.08 0.05
0.05 0.08 0.09 0.09 0.12 0.12 0.08 0.07 0.07 0.07 0.06 0.07 0.10 0.09 0.09 0.09 0.10 0.10 0.11 0.15 0.17 0.17 0.20 0.26 0.25 0.18 0.14 0.10 0.10 0.12 0.16 0.19 0.15 0.13 0.12 0.10 0.10 0.12 0.11 0.09 0.07 0.05 0.04
0.06 0.08 0.09 0.13 0.14 0.10 0.08 0.06 0.07 0.09 0.08 0.09 0.10 0.10 0.10 0.11 0.11 0.11 0.11 0.12 0.14 0.19 0.24 0.23 0.18 0.15 0.11 0.09 0.10 0.14 0.19 0.26 0.20 0.13 0.14 0.11 0.08 0.09 0.09 0.09 0.06 0.04 0.03
0.13 0.13 0.13 0.14 0.11 0.08 0.07 0.07 0.06 0.08 0.09 0.10 0.11 0.12 0.11 0.10 0.10 0.09 0.09 0.10 0.11 0.16 0.18 0.16 0.15 0.12 0.10 0.09 0.10 0.13 0.16 0.23 0.25 0.17 0.10 0.08 0.07 0.08 0.08 0.08 0.06 0.05 0.04
0.11 0.09 0.09 0.10 0.07 0.06 0.07 0.06 0.07 0.07 0.10 0.14 0.13 0.11 0.10 0.10 0.10 0.10 0.09 0.10 0.12 0.16 0.15 0.13 0.12 0.10 0.10 0.10 0.11 0.13 0.15 0.20 0.30 0.19 0.10 0.07 0.05 0.06 0.05 0.06 0.06 0.09 0.09
0.05 0.06 0.06 0.05 0.05 0.06 0.05 0.05 0.06 0.07 0.07 0.09 0.12 0.15 0.12 0.10 0.11 0.14 0.13 0.13 0.15 0.17 0.15 0.13 0.11 0.11 0.12 0.14 0.15 0.13 0.13 0.17 0.27 0.19 0.10 0.06 0.05 0.05 0.04 0.05 0.06 0.09 0.10
0.01 0.02 0.04 0.05 0.07 0.06 0.05 0.05 0.06 0.06 0.07 0.07 0.08 0.12 0.15 0.13 0.11 0.14 0.15 0.17 0.21 0.21 0.18 0.16 0.16 0.16 0.17 0.17 0.14 0.11 0.12 0.15 0.18 0.18 0.10 0.06 0.05 0.05 0.03 0.03 0.04 0.05 0.05
0.01 0.02 0.05 0.07 0.09 0.11 0.12 0.11 0.10 0.09 0.10 0.09 0.09 0.11 0.13 0.13 0.11 0.13 0.16 0.21 0.25 0.23 0.20 0.18 0.20 0.22 0.20 0.16 0.10 0.08 0.11 0.16 0.16 0.14 0.09 0.08 0.07 0.04 0.03 0.03 0.04 0.05 0.04
0.01 0.03 0.06 0.07 0.09 0.11 0.12 0.12 0.13 0.14 0.15 0.14 0.12 0.11 0.12 0.14 0.15 0.16 0.19 0.26 0.25 0.23 0.20 0.18 0.16 0.14 0.16 0.15 0.09 0.08 0.11 0.16 0.14 0.10 0.09 0.09 0.06 0.03 0.03 0.02 0.02 0.03 0.03
0.03 0.05 0.07 0.05 0.05 0.07 0.07 0.07 0.08 0.10 0.12 0.15 0.15 0.14 0.14 0.16 0.17 0.20 0.26 0.31 0.25 0.22 0.19 0.16 0.12 0.09 0.08 0.10 0.10 0.09 0.09 0.14 0.14 0.10 0.09 0.08 0.05 0.03 0.02 0.02 0.02 0.02 0.03
0.04 0.05 0.07 0.05 0.04 0.06 0.05 0.05 0.09 0.08 0.08 0.09 0.11 0.13 0.16 0.21 0.25 0.28 0.36 0.32 0.23 0.19 0.16 0.14 0.10 0.08 0.06 0.06 0.08 0.07 0.08 0.11 0.11 0.09 0.08 0.07 0.04 0.02 0.01 0.02 0.02 0.02 0.03
0.02 0.03 0.05 0.06 0.06 0.05 0.04 0.03 0.05 0.05 0.06 0.05 0.06 0.08 0.12 0.17 0.24 0.28 0.33 0.29 0.19 0.15 0.14 0.11 0.07 0.05 0.04 0.04 0.05 0.06 0.06 0.07 0.07 0.06 0.06 0.03 0.02 0.02 0.01 0.01 0.02 0.02 0.02
0.01 0.02 0.03 0.08 0.07 0.06 0.04 0.03 0.03 0.02 0.04 0.03 0.04 0.05 0.06 0.11 0.15 0.16 0.20 0.18 0.13 0.11 0.11 0.08 0.07 0.08 0.03 0.02 0.03 0.03 0.04 0.04 0.03 0.04 0.04 0.01 0.01 0.02 0.02 0.02 0.02 0.02 0.02
0.02 0.02 0.03 0.04 0.06 0.07 0.06 0.05 0.02 0.02 0.02 0.02 0.03 0.04 0.05 0.07 0.09 0.09 0.12 0.11 0.08 0.05 0.06 0.07 0.08 0.10 0.06 0.03 0.03 0.02 0.02 0.02 0.02 0.03 0.03 0.02 0.01 0.02 0.02 0.02 0.02 0.02 0.02
0.03 0.03 0.04 0.05 0.06 0.07 0.08 0.06 0.04 0.03 0.03 0.03 0.04 0.06 0.07 0.07 0.08 0.08 0.09 0.09 0.07 0.04 0.04 0.04 0.05 0.05 0.05 0.05 0.04 0.04 0.04 0.04 0.04 0.02 0.03 0.03 0.02 0.02 0.02 0.02 0.02 0.02 0.03
0.03 0.02 0.02 0.04 0.04 0.04 0.05 0.05 0.04 0.04 0.03 0.03 0.05 0.07 0.06 0.05 0.05 0.05 0.05 0.05 0.05 0.05 0.06 0.04 0.04 0.04 0.04 0.04 0.05 0.06 0.06 0.05 0.04 0.03 0.03 0.04 0.03 0.02 0.01 0.01 0.02 0.03 0.03
0.02 0.01 0.01 0.02 0.02 0.02 0.03 0.03 0.03 0.06 0.05 0.05 0.05 0.06 0.04 0.04 0.05 0.04 0.03 0.03 0.04 0.04 0.05 0.04 0.04 0.04 0.05 0.04 0.05 0.05 0.05 0.05 0.05 0.04 0.03 0.04 0.04 0.02 0.02 0.03 0.03 0.04 0.04
0.01 0.01 0.01 0.02 0.01 0.02 0.02 0.03 0.04 0.04 0.06 0.07 0.10 0.14 0.11 0.08 0.06 0.05 0.05 0.05 0.04 0.04 0.04 0.03 0.04 0.04 0.06 0.05 0.04 0.06 0.05 0.06 0.05 0.05 0.06 0.05 0.06 0.05 0.04 0.03 0.03 0.04 0.04
0.02 0.01 0.01 0.01 0.02 0.02 0.02 0.02 0.03 0.04 0.05 0.05 0.08 0.16 0.14 0.10 0.06 0.05 0.05 0.05 0.03 0.04 0.05 0.05 0.05 0.06 0.07 0.07 0.06 0.06 0.05 0.04 0.04 0.07 0.09 0.09 0.11 0.09 0.07 0.06 0.07 0.05 0.05
0.02 0.01 0.01 0.02 0.02 0.03 0.04 0.05 0.05 0.05 0.05 0.04 0.04 0.08 0.11 0.07 0.04 0.05 0.05 0.06 0.05 0.05 0.06 0.05 0.07 0.09 0.10 0.09 0.11 0.10 0.07 0.03 0.03 0.03 0.04 0.05 0.06 0.07 0.09 0.10 0.14 0.12 0.08
0.01 0.01 0.01 0.01 0.01 0.02 0.03 0.04 0.04 0.03 0.02 0.03 0.03 0.06 0.07 0.04 0.04 0.05 0.07 0.06 0.08 0.08 0.08 0.08 0.10 0.12 0.11 0.11 0.12 0.14 0.13 0.11 0.07 0.04 0.04 0.06 0.08 0.09 0.11 0.14 0.19 0.17 0.14
0.00 0.00 0.01 0.01 0.01 0.02 0.01 0.01 0.02 0.02 0.03 0.03 0.03 0.04 0.03 0.03 0.04 0.06 0.07 0.09 0.12 0.10 0.10 0.10 0.11 0.12 0.11 0.11 0.10 0.13 0.14 0.15 0.12 0.08 0.08 0.10 0.11 0.12 0.14 0.17 0.17 0.17 0.18
0.00 0.00 0.00 0.00 0.01 0.02 0.01 0.02 0.02 0.03 0.04 0.04 0.03 0.04 0.03 0.03 0.04 0.07 0.13 0.13 0.13 0.12 0.13 0.11 0.12 0.11 0.10 0.10 0.09 0.09 0.09 0.10 0.11 0.11 0.11 0.10 0.12 0.11 0.10 0.12 0.14 0.16 0.19
0.00 0.00 0.00 0.01 0.02 0.02 0.02 0.03 0.03 0.02 0.03 0.03 0.04 0.06 0.07 0.06 0.07 0.07 0.10 0.10 0.10 0.11 0.12 0.12 0.12 0.10 0.08 0.08 0.08 0.08 0.09 0.10 0.10 0.11 0.11 0.10 0.11 0.07 0.04 0.06 0.06 0.08 0.09
0.00 0.00 0.01 0.01 0.02 0.02 0.02 0.01 0.02 0.02 0.02 0.03 0.05 0.07 0.07 0.05 0.04 0.03 0.04 0.07 0.09 0.10 0.11 0.11 0.11 0.08 0.07 0.07 0.08 0.08 0.10 0.11 0.11 0.14 0.14 0.13 0.12 0.07 0.05 0.04 0.04 0.05 0.05
MSLP
1007.16 1006.61 1006.01 1005.42 1004.87 1004.37 1003.93 1003.55 1003.27 1003.10 1003.07 1003.23 1003.56 1004.07 1004.73 1005.49 1006.29 1007.08 1007.82 1008.50 1009.12 1009.69 1010.23 1010.75 1011.26 1011.75 1012.22 1012.66 1013.06 1013.44 1013.80 1014.15 1014.52 1014.90 1015.28 1015.64 1015.95 1016.19 1016.36 1016.46 1016.51 1016.55 1016.63
1007.48 1007.06 1006.63 1006.22 1005.83 1005.47 1005.14 1004.83 1004.56 1004.38 1004.32 1004.42 1004.69 1005.13 1005.71 1006.38 1007.09 1007.79 1008.44 1009.04 1009.59 1010.11 1010.61 1011.11 1011.61 1012.11 1012.57 1013.01 1013.41 1013.78 1014.14 1014.51 1014.89 1015.30 1015.71 1016.09 1016.41 1016.66 1016.81 1016.88 1016.91 1016.92 1016.97
1007.64 1007.35 1007.09 1006.87 1006.68 1006.50 1006.31 1006.12 1005.93 1005.79 1005.73 1005.80 1006.01 1006.37 1006.84 1007.38 1007.96 1008.53 1009.06 1009.56 1010.04 1010.51 1010.99 1011.48 1011.98 1012.47 1012.93 1013.35 1013.73 1014.08 1014.43 1014.80 1015.19 1015.62 1016.05 1016.45 1016.79 1017.04 1017.19 1017.26 1017.27 1017.27 1017.31
1007.64 1007.49 1007.39 1007.37 1007.38 1007.39 1007.38 1007.34 1007.27 1007.21 1007.19 1007.25 1007.42 1007.69 1008.04 1008.45 1008.88 1009.30 1009.71 1010.11 1010.52 1010.95 1011.41 1011.90 1012.40 1012.88 1013.32 1013.71 1014.05 1014.37 1014.68 1015.03 1015.42 1015.85 1016.30 1016.72 1017.08 1017.34 1017.50 1017.57 1017.59 1017.61 1017.66
1007.55 1007.51 1007.57 1007.72 1007.92 1008.13 1008.30 1008.43 1008.50 1008.54 1008.58 1008.67 1008.81 1009.01 1009.26 1009.54 1009.82 1010.11 1010.40 1010.71 1011.06 1011.46 1011.92 1012.41 1012.90 1013.37 1013.78 1014.11 1014.40 1014.65 1014.91 1015.22 1015.59 1016.02 1016.47 1016.91 1017.29 1017.57 1017.76 1017.85 1017.89 1017.93 1018.01
1007.46 1007.51 1007.68 1007.97 1008.33 1008.71 1009.04 1009.32 1009.53 1009.68 1009.81 1009.94 1010.08 1010.23 1010.41 1010.58 1010.75 1010.92 1011.12 1011.36 1011.68 1012.06 1012.52 1013.01 1013.49 1013.93 1014.29 1014.56 1014.76 1014.94 1015.13 1015.39 1015.73 1016.15 1016.61 1017.07 1017.47 1017.78 1017.98 1018.10 1018.17 1018.25 1018.36
1007.42 1007.53 1007.79 1008.18 1008.65 1009.14 1009.60 1010.00 1010.32 1010.58 1010.79 1010.98 1011.14 1011.29 1011.42 1011.54 1011.63 1011.73 1011.86 1012.06 1012.35 1012.73 1013.18 1013.66 1014.13 1014.52 1014.82 1015.01 1015.13 1015.22 1015.34 1015.55 1015.86 1016.27 1016.74 1017.22 1017.64 1017.98 1018.21 1018.36 1018.45 1018.55 1018.69
1007.50 1007.65 1007.96 1008.40 1008.92 1009.46 1009.98 1010.45 1010.86 1011.20 1011.49 1011.74 1011.96 1012.14 1012.27 1012.36 1012.43 1012.49 1012.59 1012.76 1013.03 1013.40 1013.84 1014.31 1014.74 1015.08 1015.31 1015.42 1015.45 1015.47 1015.53 1015.69 1015.99 1016.40 1016.89 1017.40 1017.85 1018.22 1018.47 1018.63 1018.73 1018.84 1018.99
1007.72 1007.89 1008.21 1008.66 1009.17 1009.72 1010.24 1010.73 1011.17 1011.56 1011.92 1012.24 1012.52 1012.75 1012.93 1013.04 1013.11 1013.17 1013.26 1013.42 1013.67 1014.02 1014.43 1014.86 1015.25 1015.53 1015.69 1015.73 1015.70 1015.66 1015.68 1015.83 1016.12 1016.56 1017.08 1017.62 1018.11 1018.50 1018.77 1018.93 1019.02 1019.11 1019.24
1008.07 1008.25 1008.56 1008.98 1009.46 1009.95 1010.43 1010.89 1011.32 1011.73 1012.13 1012.51 1012.87 1013.17 1013.41 1013.57 1013.67 1013.75 1013.84 1013.98 1014.22 1014.54 1014.91 1015.29 1015.61 1015.84 1015.94 1015.92 1015.85 1015.78 1015.79 1015.94 1016.26 1016.73 1017.29 1017.87 1018.39 1018.81 1019.09 1019.24 1019.32 1019.37 1019.46
1008.52 1008.71 1009.01 1009.38 1009.79 1010.20 1010.60 1010.99 1011.38 1011.78 1012.20 1012.64 1013.06 1013.43 1013.74 1013.97 1014.12 1014.22 1014.32 1014.46 1014.66 1014.93 1015.25 1015.57 1015.84 1016.00 1016.05 1016.01 1015.91 1015.84 1015.86 1016.04 1016.39 1016.90 1017.50 1018.12 1018.68 1019.11 1019.40 1019.55 1019.60 1019.62 1019.66
1009.01 1009.22 1009.51 1009.84 1010.18 1010.50 1010.80 1011.10 1011.42 1011.79 1012.21 1012.68 1013.15 1013.60 1013.98 1014.27 1014.48 1014.62 1014.72 1014.84 1015.01 1015.23 1015.49 1015.74 1015.95 1016.06 1016.08 1016.02 1015.93 1015.87 1015.92 1016.13 1016.51 1017.06 1017.69 1018.34 1018.92 1019.38 1019.68 1019.83 1019.87 1019.86 1019.87
1009.50 1009.75 1010.04 1010.33 1010.60 1010.83 1011.04 1011.25 1011.50 1011.82 1012.22 1012.70 1013.21 1013.71 1014.15 1014.51 1014.76 1014.93 1015.05 1015.16 1015.29 1015.46 1015.66 1015.85 1016.00 1016.09 1016.09 1016.03 1015.95 1015.92 1016.00 1016.23 1016.64 1017.20 1017.84 1018.50 1019.10 1019.57 1019.88 1020.05 1020.09 1020.08 1020.07
1009.95 1010.24 1010.54 1010.81 1011.03 1011.20 1011.32 1011.45 1011.63 1011.90 1012.27 1012.73 1013.26 1013.79 1014.28 1014.68 1014.98 1015.18 1015.31 1015.42 1015.53 1015.66 1015.81 1015.96 1016.08 1016.14 1016.14 1016.10 1016.04 1016.04 1016.14 1016.38 1016.78 1017.32 1017.95 1018.59 1019.17 1019.65 1019.98 1020.17 1020.26 1020.27 1020.28
1010.30 1010.63 1010.96 1011.23 1011.42 1011.54 1011.61 1011.68 1011.81 1012.02 1012.35 1012.79 1013.31 1013.85 1014.36 1014.79 1015.13 1015.36 1015.52 1015.63 1015.73 1015.85 1015.97 1016.10 1016.21 1016.27 1016.28 1016.26 1016.23 1016.25 1016.35 1016.58 1016.95 1017.44 1018.01 1018.60 1019.15 1019.61 1019.96 1020.19 1020.33 1020.40 1020.46
1010.53 1010.90 1011.24 1011.52 1011.71 1011.82 1011.87 1011.91 1012.00 1012.17 1012.46 1012.87 1013.36 1013.89 1014.40 1014.84 1015.20 1015.47 1015.65 1015.79 1015.90 1016.02 1016.15 1016.28 1016.39 1016.47 1016.51 1016.52 1016.53 1016.56 1016.65 1016.85 1017.15 1017.56 1018.04 1018.55 1019.04 1019.47 1019.82 1020.09 1020.28 1020.43 1020.56
1010.64 1011.02 1011.38 1011.67 1011.87 1011.99 1012.05 1012.09 1012.17 1012.33 1012.59 1012.96 1013.41 1013.90 1014.39 1014.83 1015.20 1015.49 1015.70 1015.87 1016.02 1016.16 1016.31 1016.46 1016.60 1016.71 1016.79 1016.84 1016.88 1016.93 1017.01 1017.16 1017.39 1017.70 1018.06 1018.46 1018.86 1019.23 1019.57 1019.86 1020.11 1020.33 1020.55
1010.64 1011.02 1011.38 1011.68 1011.90 1012.05 1012.15 1012.23 1012.32 1012.48 1012.72 1013.05 1013.45 1013.89 1014.34 1014.76 1015.12 1015.43 1015.67 1015.88 1016.06 1016.24 1016.42 1016.60 1016.78 1016.93 1017.06 1017.16 1017.24 1017.30 1017.38 1017.49 1017.64 1017.84 1018.08 1018.35 1018.64 1018.94 1019.24 1019.53 1019.81 1020.10 1020.38
1010.55 1010.92 1011.26 1011.57 1011.83 1012.02 1012.18 1012.31 1012.46 1012.63 1012.87 1013.16 1013.51 1013.90 1014.29 1014.67 1015.01 1015.31 1015.58 1015.81 1016.03 1016.24 1016.45 1016.67 1016.88 1017.08 1017.26 1017.41 1017.53 1017.63 1017.72 1017.80 1017.89 1017.99 1018.11 1018.26 1018.43 1018.62 1018.85 1019.11 1019.40 1019.72 1020.05
1010.44 1010.76 1011.09 1011.40 1011.69 1011.95 1012.17 1012.38 1012.59 1012.80 1013.04 1013.31 1013.61 1013.93 1014.26 1014.58 1014.89 1015.18 1015.45 1015.70 1015.94 1016.17 1016.41 1016.65 1016.89 1017.13 1017.35 1017.55 1017.72 1017.86 1017.97 1018.05 1018.10 1018.13 1018.15 1018.18 1018.22 1018.30 1018.44 1018.63 1018.89 1019.20 1019.55
1010.31 1010.61 1010.92 1011.23 1011.55 1011.86 1012.17 1012.46 1012.74 1013.00 1013.26 1013.51 1013.76 1014.02 1014.28 1014.54 1014.81 1015.07 1015.32 1015.58 1015.82 1016.07 1016.32 1016.56 1016.82 1017.07 1017.32 1017.56 1017.78 1017.97 1018.12 1018.21 1018.25 1018.24 1018.18 1018.11 1018.04 1018.00 1018.03 1018.13 1018.32 1018.59 1018.92
1010.21 1010.49 1010.78 1011.09 1011.44 1011.81 1012.19 1012.56 1012.91 1013.23 1013.51 1013.75 1013.96 1014.16 1014.35 1014.55 1014.77 1015.00 1015.23 1015.48 1015.72 1015.96 1016.20 1016.44 1016.68 1016.93 1017.20 1017.46 1017.72 1017.95 1018.14 1018.27 1018.32 1018.29 1018.18 1018.03 1017.86 1017.71 1017.62 1017.62 1017.71 1017.91 1018.19
1010.11 1010.38 1010.67 1010.99 1011.36 1011.78 1012.22 1012.67 1013.08 1013.44 1013.74 1013.97 1014.16 1014.30 1014.45 1014.59 1014.77 1014.96 1015.18 1015.41 1015.64 1015.87 1016.09 1016.31 1016.53 1016.76 1017.01 1017.28 1017.56 1017.83 1018.05 1018.21 1018.29 1018.26 1018.13 1017.93 1017.68 1017.43 1017.23 1017.11 1017.09 1017.19 1017.40
1009.96 1010.26 1010.55 1010.89 1011.29 1011.74 1012.23 1012.72 1013.18 1013.58 1013.90 1014.12 1014.28 1014.40 1014.50 1014.61 1014.75 1014.93 1015.14 1015.36 1015.59 1015.80 1016.00 1016.19 1016.37 1016.57 1016.80 1017.05 1017.33 1017.61 1017.86 1018.05 1018.15 1018.13 1018.00 1017.77 1017.47 1017.15 1016.85 1016.61 1016.48 1016.48 1016.59
1009.70 1010.04 1010.37 1010.73 1011.14 1011.62 1012.14 1012.67 1013.16 1013.58 1013.90 1014.13 1014.27 1014.36 1014.44 1014.53 1014.66 1014.84 1015.05 1015.28 1015.52 1015.73 1015.92 1016.08 1016.23 1016.39 1016.57 1016.79 1017.04 1017.31 1017.57 1017.77 1017.90 1017.91 1017.79 1017.55 1017.23 1016.85 1016.47 1016.15 1015.91 1015.80 1015.81
1009.26 1009.66 1010.03 1010.42 1010.86 1011.36 1011.90 1012.44 1012.94 1013.37 1013.70 1013.93 1014.06 1014.15 1014.22 1014.31 1014.45 1014.64 1014.87 1015.13 1015.38 1015.61 1015.80 1015.95 1016.07 1016.19 1016.33 1016.50 1016.71 1016.95 1017.19 1017.40 1017.54 1017.57 1017.47 1017.25 1016.93 1016.53 1016.11 1015.72 1015.40 1015.19 1015.10
Thickness
5783 5783 5781 5781 5781 5781 5781 5781 5781 5780 5779 5779 5778 5777 5777 5777 5778 5777 5777 5777 5777 5776 5775 5773 5772 5770 5769 5769 5767 5765 5764 5763 5762 5760 5758 5757 5755 5754 5753 5753 5753 5751 5750
5786 5782 5780 5779 5779 5779 5780 5779 5779 5778 5777 5777 5776 5775 5776 5776 5776 5775 5775 5775 5775 5774 5773 5772 5770 5769 5768 5766 5765 5764 5762 5761 5760 5758 5757 5756 5754 5753 5752 5752 5751 5750 5749
5787 5782 5779 5778 5778 5778 5778 5778 5777 5776 5775 5775 5774 5773 5774 5774 5774 5774 5773 5772 5772 5772 5771 5770 5768 5767 5766 5764 5763 5762 5761 5759 5758 5757 5756 5755 5752 5751 5751 5750 5749 5748 5748
5788 5783 5778 5776 5777 5777 5776 5776 5775 5774 5773 5773 5772 5772 5772 5772 5772 5772 5771 5771 5771 5770 5770 5768 5767 5766 5764 5763 5761 5761 5760 5758 5758 5757 5756 5754 5752 5750 5749 5748 5748 5747 5746
5787 5782 5777 5776 5775 5775 5774 5774 5774 5773 5772 5771 5770 5770 5770 5770 5770 5770 5770 5770 5769 5768 5767 5766 5765 5764 5763 5761 5760 5759 5759 5758 5758 5757 5756 5753 5751 5749 5748 5747 5747 5746 5745
5787 5782 5777 5775 5775 5774 5773 5772 5772 5771 5770 5769 5769 5768 5768 5768 5768 5768 5768 5768 5767 5766 5765 5765 5764 5763 5761 5760 5759 5759 5758 5758 5757 5756 5755 5752 5750 5748 5747 5747 5747 5745 5743
5787 5782 5777 5775 5774 5773 5772 5771 5771 5770 5769 5769 5768 5767 5767 5767 5766 5766 5767 5766 5765 5764 5764 5763 5763 5761 5760 5760 5759 5758 5757 5757 5757 5756 5754 5751 5748 5747 5746 5745 5745 5743 5742
5790 5783 5778 5775 5774 5773 5771 5770 5770 5769 5768 5768 5767 5767 5766 5766 5765 5765 5765 5764 5764 5763 5763 5762 5761 5760 5759 5759 5758 5758 5757 5757 5758 5756 5753 5750 5748 5747 5746 5745 5744 5743 5741
5792 5786 5781 5777 5774 5773 5771 5770 5769 5768 5768 5768 5767 5766 5765 5765 5764 5763 5763 5763 5762 5762 5761 5760 5759 5759 5758 5758 5757 5757 5757 5758 5758 5756 5753 5749 5747 5746 5745 5744 5743 5742 5740
5792 5790 5786 5782 5778 5775 5772 5770 5769 5769 5768 5767 5767 5766 5765 5765 5764 5763 5762 5762 5761 5760 5760 5759 5758 5757 5757 5757 5758 5758 5758 5758 5759 5757 5753 5749 5747 5746 5745 5744 5742 5741 5740
5789 5789 5788 5785 5781 5779 5776 5772 5771 5769 5768 5767 5767 5766 5766 5765 5764 5763 5762 5761 5760 5759 5759 5758 5758 5757 5757 5757 5758 5758 5758 5759 5759 5756 5753 5750 5748 5746 5745 5743 5742 5741 5740
5785 5787 5788 5785 5783 5782 5780 5775 5774 5772 5770 5769 5769 5768 5767 5766 5765 5764 5762 5761 5760 5759 5758 5758 5757 5758 5757 5758 5758 5759 5760 5760 5759 5756 5752 5750 5748 5746 5744 5743 5742 5741 5740
5787 5788 5786 5784 5782 5782 5780 5778 5776 5774 5772 5771 5770 5768 5767 5767 5766 5765 5763 5761 5760 5760 5759 5759 5758 5758 5759 5760 5761 5761 5762 5762 5760 5756 5752 5750 5748 5746 5745 5743 5742 5741 5740
5788 5787 5786 5784 5782 5781 5781 5779 5778 5776 5774 5772 5771 5769 5768 5767 5766 5765 5764 5763 5762 5762 5761 5761 5760 5760 5761 5761 5762 5762 5763 5762 5760 5756 5752 5750 5748 5747 5745 5744 5742 5741 5740
5788 5787 5786 5784 5782 5781 5780 5779 5779 5777 5776 5773 5771 5770 5769 5768 5767 5765 5765 5764 5764 5763 5763 5762 5761 5761 5761 5762 5762 5763 5763 5762 5759 5756 5752 5750 5748 5747 5745 5744 5743 5741 5740
5790 5788 5786 5784 5783 5781 5780 5779 5779 5778 5776 5775 5773 5771 5770 5769 5767 5766 5765 5764 5764 5764 5764 5763 5762 5762 5762 5762 5762 5762 5762 5761 5759 5756 5752 5750 5748 5746 5745 5744 5743 5741 5740
5793 5790 5787 5785 5784 5782 5781 5781 5781 5780 5778 5776 5774 5772 5771 5770 5768 5767 5766 5765 5765 5765 5765 5764 5764 5763 5762 5762 5761 5761 5760 5759 5758 5756 5753 5750 5748 5746 5745 5744 5743 5741 5740
5795 5791 5790 5790 5785 5783 5782 5782 5781 5780 5779 5777 5775 5773 5772 5771 5770 5769 5768 5766 5766 5766 5765 5765 5764 5762 5761 5761 5760 5760 5759 5758 5757 5756 5755 5753 5750 5748 5746 5744 5743 5741 5740
5797 5793 5790 5790 5787 5784 5784 5783 5782 5780 5779 5778 5777 5775 5774 5772 5771 5770 5768 5767 5767 5767 5766 5765 5764 5762 5760 5759 5759 5759 5758 5757 5757 5756 5756 5754 5751 5749 5747 5745 5743 5742 5740
5800 5796 5793 5790 5788 5786 5785 5783 5782 5782 5781 5780 5778 5776 5775 5773 5772 5771 5770 5768 5768 5767 5765 5764 5762 5762 5760 5759 5760 5758 5757 5757 5756 5756 5755 5754 5752 5751 5748 5746 5743 5741 5739
5802 5797 5794 5791 5789 5787 5785 5782 5780 5779 5780 5780 5779 5777 5775 5774 5773 5771 5770 5769 5768 5767 5765 5765 5763 5761 5759 5760 5755 5752 5754 5757 5755 5755 5754 5753 5752 5751 5748 5746 5743 5741 5739
5803 5800 5796 5793 5791 5789 5787 5785 5783 5782 5782 5782 5781 5778 5776 5775 5773 5773 5771 5770 5769 5768 5766 5765 5763 5759 5758 5759 5753 5746 5742 5744 5749 5753 5752 5750 5749 5748 5747 5745 5742 5740 5738
5806 5803 5801 5797 5794 5792 5790 5788 5786 5784 5782 5780 5778 5777 5777 5776 5774 5772 5771 5770 5769 5768 5766 5764 5763 5759 5755 5757 5757 5748 5739 5735 5740 5746 5747 5747 5746 5745 5744 5743 5741 5738 5736
5811 5809 5805 5800 5796 5794 5792 5789 5785 5780 5777 5777 5778 5778 5777 5776 5775 5773 5771 5770 5768 5768 5766 5764 5764 5761 5757 5753 5754 5754 5750 5747 5739 5734 5739 5743 5744 5742 5741 5740 5738 5736 5734
5817 5813 5808 5803 5798 5796 5793 5790 5786 5783 5781 5781 5780 5778 5777 5776 5775 5774 5772 5770 5768 5766 5765 5764 5762 5760 5758 5755 5752 5751 5750 5749 5746 5736 5730 5733 5736 5738 5738 5737 5735 5733 5731
5821 5816 5811 5804 5799 5797 5794 5791 5787 5784 5782 5779 5778 5776 5776 5775 5775 5774 5772 5770 5768 5766 5764 5763 5761 5759 5757 5755 5754 5752 5749 5745 5741 5738 5732 5730 5730 5733 5735 5734 5732 5730 5728